Location: Volcano
(19.4310°N, 155.2380°W)
Time: 11:42:29
(UTC-10:00)

N. Korean satellite - Visible Passes

Search period start: 15 January 2021 00:00
Search period end: 25 January 2021 00:00
Orbit: 453 x 502 km, 97.2° (Epoch: 15 January)

Date Brightness Start Highest point End Pass type
(mag) Time Alt. Az. Time Alt. Az. Time Alt. Az.
15 Jan 6.3 05:37:40 10° N 05:41:07 85° WNW 05:44:31 10° SSW visible
16 Jan 8.3 05:11:28 10° NE 05:14:35 31° E 05:17:39 10° SSE visible
17 Jan 9.8 04:46:33 10° ENE 04:47:58 12° E 04:49:23 10° ESE visible
17 Jan 7.9 06:18:46 10° NNW 06:21:07 17° WNW 06:23:26 10° WSW visible
18 Jan 6.6 05:51:22 10° N 05:54:41 46° WNW 05:57:57 10° SSW visible
19 Jan 7.1 05:24:48 10° NNE 05:28:10 55° E 05:31:30 10° S visible
20 Jan 9.1 04:59:02 10° NE 05:01:35 20° E 05:04:08 10° SSE visible
21 Jan 7.3 06:05:16 10° NNW 06:08:11 27° WNW 06:11:07 10° SW visible
22 Jan 6.2 05:38:18 10° N 05:41:43 81° WNW 05:45:06 10° SSW visible
23 Jan 8.2 05:12:04 10° NNE 05:15:10 32° E 05:18:14 10° SSE visible
24 Jan 9.8 04:47:03 10° ENE 04:48:33 12° E 04:50:01 10° ESE visible
24 Jan 7.9 06:19:25 10° NNW 06:21:40 17° WNW 06:23:55 10° WSW visible
